TimeEDT,TemperatureF,Dew PointF,Humidity,Sea Level PressureIn,VisibilityMPH,Wind Direction,Wind SpeedMPH,Gust SpeedMPH,PrecipitationIn,Events,Conditions,WindDirDegrees,DateUTC
12:15 AM,71.6,68.0,88,30.11,10.0,Calm,Calm,-,N/A,,Scattered Clouds,0,2013-06-21 04:15:00
12:35 AM,71.6,68.0,88,30.11,10.0,Calm,Calm,-,N/A,,Mostly Cloudy,0,2013-06-21 04:35:00
12:55 AM,71.6,68.0,88,30.10,10.0,Calm,Calm,-,N/A,,Scattered Clouds,0,2013-06-21 04:55:00
1:15 AM,71.6,68.0,88,30.09,10.0,Calm,Calm,-,N/A,,Clear,0,2013-06-21 05:15:00
1:35 AM,71.6,68.0,88,30.09,10.0,Calm,Calm,-,N/A,,Clear,0,2013-06-21 05:35:00
1:55 AM,71.6,68.0,88,30.09,10.0,Calm,Calm,-,N/A,,Clear,0,2013-06-21 05:55:00
2:15 AM,69.8,68.0,94,30.08,10.0,Calm,Calm,-,N/A,,Clear,0,2013-06-21 06:15:00
2:35 AM,69.8,68.0,94,30.08,10.0,Calm,Calm,-,N/A,,Clear,0,2013-06-21 06:35:00
2:55 AM,69.8,68.0,94,30.07,10.0,Calm,Calm,-,N/A,,Clear,0,2013-06-21 06:55:00
3:15 AM,69.8,68.0,94,30.06,10.0,Calm,Calm,-,N/A,,Clear,0,2013-06-21 07:15:00
3:35 AM,69.8,68.0,94,30.06,10.0,Calm,Calm,-,N/A,,Clear,0,2013-06-21 07:35:00
3:55 AM,69.8,68.0,94,30.06,10.0,Calm,Calm,-,N/A,,Clear,0,2013-06-21 07:55:00
4:15 AM,68.0,68.0,100,30.06,10.0,Calm,Calm,-,N/A,,Clear,0,2013-06-21 08:15:00
4:35 AM,69.8,68.0,94,30.06,10.0,Calm,Calm,-,N/A,,Clear,0,2013-06-21 08:35:00
4:55 AM,69.8,68.0,94,30.06,10.0,Calm,Calm,-,N/A,,Clear,0,2013-06-21 08:55:00
5:15 AM,69.8,66.2,88,30.06,10.0,Calm,Calm,-,N/A,,Clear,0,2013-06-21 09:15:00
5:35 AM,69.8,68.0,94,30.06,10.0,Calm,Calm,-,N/A,,Clear,0,2013-06-21 09:35:00
5:55 AM,69.8,68.0,94,30.06,10.0,Calm,Calm,-,N/A,,Clear,0,2013-06-21 09:55:00
6:15 AM,69.8,68.0,94,30.07,10.0,Calm,Calm,-,N/A,,Clear,0,2013-06-21 10:15:00
6:35 AM,69.8,68.0,94,30.07,10.0,Calm,Calm,-,N/A,,Clear,0,2013-06-21 10:35:00
6:55 AM,69.8,68.0,94,30.08,10.0,Calm,Calm,-,N/A,,Clear,0,2013-06-21 10:55:00
7:15 AM,69.8,68.0,94,30.09,10.0,Calm,Calm,-,N/A,,Clear,0,2013-06-21 11:15:00
7:35 AM,71.6,69.8,94,30.09,10.0,Calm,Calm,-,N/A,,Clear,0,2013-06-21 11:35:00
7:55 AM,73.4,69.8,88,30.09,10.0,East,4.6,-,N/A,,Clear,80,2013-06-21 11:55:00
8:15 AM,75.2,69.8,83,30.10,10.0,East,3.5,-,N/A,,Clear,90,2013-06-21 12:15:00
8:35 AM,77.0,69.8,78,30.10,10.0,East,4.6,-,N/A,,Clear,90,2013-06-21 12:35:00
8:55 AM,78.8,69.8,74,30.11,10.0,ESE,3.5,-,N/A,,Clear,120,2013-06-21 12:55:00
9:15 AM,78.8,69.8,74,30.11,10.0,East,3.5,-,N/A,,Clear,80,2013-06-21 13:15:00
9:35 AM,78.8,69.8,74,30.11,10.0,Calm,Calm,-,N/A,,Clear,0,2013-06-21 13:35:00
9:55 AM,80.6,69.8,70,30.12,10.0,Calm,Calm,-,N/A,,Clear,0,2013-06-21 13:55:00
10:15 AM,82.4,69.8,66,30.12,10.0,ESE,3.5,-,N/A,,Clear,110,2013-06-21 14:15:00
10:35 AM,82.4,69.8,66,30.12,10.0,ENE,4.6,-,N/A,,Clear,70,2013-06-21 14:35:00
10:55 AM,86.0,69.8,58,30.12,10.0,Calm,Calm,-,N/A,,Scattered Clouds,0,2013-06-21 14:55:00
11:15 AM,86.0,68.0,55,30.12,10.0,ENE,3.5,-,N/A,,Scattered Clouds,60,2013-06-21 15:15:00
11:35 AM,86.0,68.0,55,30.12,10.0,Calm,Calm,-,N/A,,Clear,0,2013-06-21 15:35:00
11:55 AM,87.8,68.0,52,30.12,10.0,Calm,Calm,-,N/A,,Clear,0,2013-06-21 15:55:00
12:15 PM,87.8,68.0,52,30.11,10.0,NE,3.5,-,N/A,,Scattered Clouds,40,2013-06-21 16:15:00
12:35 PM,86.0,68.0,55,30.11,10.0,NE,4.6,-,N/A,,Mostly Cloudy,50,2013-06-21 16:35:00
12:55 PM,87.8,68.0,52,30.11,10.0,Calm,Calm,-,N/A,,Scattered Clouds,0,2013-06-21 16:55:00
1:15 PM,87.8,68.0,52,30.10,10.0,NNW,3.5,-,N/A,,Mostly Cloudy,330,2013-06-21 17:15:00
1:35 PM,87.8,68.0,52,30.10,10.0,WNW,3.5,-,N/A,,Mostly Cloudy,300,2013-06-21 17:35:00
1:55 PM,87.8,69.8,55,30.09,10.0,WNW,5.8,-,N/A,,Scattered Clouds,300,2013-06-21 17:55:00
2:15 PM,87.8,69.8,55,30.09,10.0,West,4.6,-,N/A,,Mostly Cloudy,280,2013-06-21 18:15:00
2:35 PM,87.8,69.8,55,30.08,10.0,West,6.9,-,N/A,Thunderstorm,Thunderstorm,280,2013-06-21 18:35:00
2:55 PM,86.0,68.0,55,30.09,10.0,ESE,6.9,-,N/A,Thunderstorm,Thunderstorm,120,2013-06-21 18:55:00
3:15 PM,80.6,68.0,65,30.10,10.0,SSE,3.5,-,N/A,Thunderstorm,Thunderstorm,160,2013-06-21 19:15:00
3:35 PM,82.4,68.0,62,30.11,10.0,NE,4.6,-,N/A,Thunderstorm,Thunderstorm,50,2013-06-21 19:35:00
3:55 PM,82.4,69.8,66,30.10,10.0,East,11.5,-,N/A,Thunderstorm,Thunderstorm,80,2013-06-21 19:55:00
4:15 PM,82.4,69.8,66,30.09,10.0,East,5.8,-,N/A,,Scattered Clouds,80,2013-06-21 20:15:00
4:35 PM,86.0,69.8,58,30.08,10.0,East,3.5,-,N/A,,Scattered Clouds,80,2013-06-21 20:35:00
4:55 PM,84.2,68.0,58,30.07,10.0,Calm,Calm,-,N/A,Thunderstorm,Scattered Clouds,0,2013-06-21 20:55:00
5:15 PM,86.0,69.8,58,30.08,10.0,Calm,Calm,-,N/A,Thunderstorm,Scattered Clouds,0,2013-06-21 21:15:00
5:35 PM,82.4,73.4,74,30.09,3.0,Calm,Calm,-,0.02,Rain,Heavy Rain,0,2013-06-21 21:35:00
5:55 PM,80.6,71.6,74,30.10,10.0,NNE,6.9,-,0.02,,Overcast,20,2013-06-21 21:55:00
6:15 PM,80.6,71.6,74,30.09,10.0,NNE,6.9,-,N/A,,Overcast,30,2013-06-21 22:15:00
6:35 PM,77.0,73.4,89,30.09,5.0,ESE,4.6,-,0.02,Rain-Thunderstorm,Light Thunderstorms and Rain,110,2013-06-21 22:35:00
6:55 PM,78.8,73.4,83,30.10,10.0,East,10.4,-,0.02,Thunderstorm,Thunderstorm,90,2013-06-21 22:55:00
7:15 PM,77.0,69.8,78,30.11,10.0,ESE,3.5,-,N/A,Thunderstorm,Thunderstorm,110,2013-06-21 23:15:00
7:35 PM,75.2,71.6,89,30.12,10.0,SE,4.6,-,N/A,Rain-Thunderstorm,Rain,130,2013-06-21 23:35:00
7:55 PM,73.4,71.6,94,30.11,2.5,East,3.5,-,0.08,Rain-Thunderstorm,Rain,100,2013-06-21 23:55:00
8:15 PM,73.4,71.6,94,30.11,10.0,Calm,Calm,-,0.01,Rain-Thunderstorm,Light Thunderstorms and Rain,0,2013-06-22 00:15:00
8:35 PM,73.4,71.6,94,30.10,10.0,Calm,Calm,-,0.01,,Scattered Clouds,0,2013-06-22 00:35:00
8:55 PM,73.4,71.6,94,30.10,7.0,Calm,Calm,-,0.01,,Scattered Clouds,0,2013-06-22 00:55:00
9:15 PM,73.4,71.6,94,30.09,7.0,Calm,Calm,-,N/A,,Clear,0,2013-06-22 01:15:00
9:35 PM,73.4,71.6,94,30.10,10.0,Calm,Calm,-,N/A,,Clear,0,2013-06-22 01:35:00
9:55 PM,71.6,71.6,100,30.10,5.0,Calm,Calm,-,N/A,,Clear,0,2013-06-22 01:55:00
10:15 PM,71.6,71.6,100,30.10,7.0,Calm,Calm,-,N/A,,Clear,0,2013-06-22 02:15:00
10:35 PM,71.6,71.6,100,30.11,7.0,Calm,Calm,-,0.01,,Clear,0,2013-06-22 02:35:00
10:55 PM,71.6,71.6,100,30.11,7.0,Calm,Calm,-,0.01,,Clear,0,2013-06-22 02:55:00
11:15 PM,71.6,69.8,94,30.11,7.0,Calm,Calm,-,N/A,,Clear,0,2013-06-22 03:15:00
11:35 PM,71.6,69.8,94,30.11,7.0,East,3.5,-,N/A,,Clear,80,2013-06-22 03:35:00
11:55 PM,71.6,69.8,94,30.11,10.0,Calm,Calm,-,N/A,,Clear,0,2013-06-22 03:55:00